Tracking 19245 objects as of 17-Aug-2018
HD Live streaming from Space Station
objects crossing your sky now

FENGYUN 1C DEB

Track FENGYUN 1C DEB now!
10-day predictions


NORAD ID: 31459
Int'l Code: 1999-025BUX
Perigee: 730.1 km
Apogee: 913.7 km
Inclination: 98.1 °
Period: 101.2 minutes
Semi major axis: 7192 km
RCS: 0.0089 m2 (small)
Launch date: May 10, 1999
Source: People's Republic of China (PRC)
Launch site: Taiyaun Space Center, China (TSC)

Note: This is SATELLITE DEBRIS
aabbcc
Your satellite tracking list
Your tracking list is empty




NASA's NSSDC Master Catalog

Two Line Element Set (TLE):
1 31459U 99025BUX 18228.35351796 +.00000492 +00000-0 +21611-3 0  9996
2 31459 098.1362 279.4243 0127631 156.2733 204.4404 14.23138909263628
Source of the keplerian elements: AFSPC